Tracking 30703 objects as of 14-Jun-2025
HD Live streaming from Space Station
objects crossing your sky now

COSMOS 1275 DEB

Track COSMOS 1275 DEB now!
10-day predictions


NORAD ID: 42130
Int'l Code: 1981-053QS
Perigee: 817.4 km
Apogee: 848.5 km
Inclination: 82.9 °
Period: 101.4 minutes
Semi major axis: 7203 km
RCS: Unknown
Launch date: June 4, 1981
Source: Commonwealth of Independent States (former USSR) (CIS)
Launch site: PLESETSK MISSILE AND SPACE COMPLEX (PKMTR)

Note: This is SATELLITE DEBRIS
Your satellite tracking list
Your tracking list is empty




NASA's NSSDC Master Catalog

Two Line Element Set (TLE):
1 42130U 81053QS  25164.88383402  .00003592  00000-0  16822-2 0  9991
2 42130  82.8587  25.2638 0021602 318.9236  41.0317 14.19869674594277
Source of the keplerian elements: AFSPC